Погода в Виноградном

Россия / Ростовская область     48°00′00″N   40°54′45″E
темп.,
°C
ветер,
м/с
пор.,
м/с
влажн.,
%
обл.,
%
осадки,
мм/ч
давл.,
гПа
погр.,
м
16 мая, пн
пн1600:00+10з311795 0.0 1012214
03:00+9з310875 0.0 1011200
06:00+10зюз310835 0.0 1012349
09:00+15зсз710595 0.0 10121402
12:00+17зсз91147100 0.3 10122352
15:00+18сз9113785 0.3 10122783
18:00+16сз594787 0.0 1013574
21:00+12з22540 0.0 101517
17 мая, вт
вт1700:00+10з346631 0.0 101550
03:00+9зюз396988 0.0 1014172
06:00+11з51070100 0.1 1014517
09:00+14зсз71049100 0.1 10141405
12:00+16зсз793669 0.0 10132503
15:00+17зсз8103892 0.0 10122516
18:00+16зсз610475 0.0 10121894
21:00+10зсз227212 0.0 101311
18 мая, ср
ср1800:00+10юз347796 0.5 101183
03:00+8юз228530 0.8 101017
06:00+9юз21082100 0.0 1010446
09:00+13сз4662100 0.0 1010817
12:00+12зюз4560100 0.1 10111360
15:00+15з3541100 0.1 10101759
18:00+15зюз3445100 0.0 10101089
21:00+10зюз3672100 0.0 1012132
19 мая, чт
чт1900:00+8сз3581100 0.0 1013100
03:00+7сз3894100 0.0 1014201
06:00+7сз37895 0.0 1016247
09:00+13ссз456554 0.0 10181072
12:00+15сз5647100 0.4 10182050
15:00+16сз7849100 0.4 10182045
18:00+15сз5952100 0.0 10181078
21:00+11з3664100 0.0 101994
20 мая, пт
пт2000:00+10з51168100 0.0 1019309
03:00+10з3873100 0.0 1018260
06:00+10сз4983100 0.2 1018617
09:00+8св3588100 0.6 1019311
12:00+10св017335 0.0 1020333
15:00+14сз2253100 0.2 10181638
18:00+13зсз246051 0.1 1018449
21:00+10зюз226795 0.1 101811